CW9181 Weather Reports


time (UTC)temp
F
wind
direction
speed
knots
gust
knots
rain 1hr
in
rain 24hr
in
rain mn
in
humidity
%
barometer
mb
20260504004803 69 238 2.6 7.8 0.00 0.00 0.00 53 1011.3
20260504003822 69 238 5.2 10.4 0.00 0.00 0.00 53 1011.4
20260504002838 69 238 4.3 9.6 0.00 0.00 0.00 53 1011.3
20260504001817 69 239 3.5 9.6 0.00 0.00 0.00 53 1011.3
20260504000814 70 162 3.5 11.3 0.00 0.00 0.00 54 1011.3
20260503235811 70 203 3.5 7.8 0.00 0.00 0.00 54 1011.4
20260503234804 69 193 0.9 5.2 0.00 0.00 0.00 55 1011.5
20260503233804 68 137 2.6 7.0 0.00 0.00 0.00 57 1011.7
20260503232820 68 167 2.6 4.3 0.00 0.00 0.00 56 1012.0
20260503231819 68 239 1.7 7.8 0.00 0.00 0.00 58 1012.0
20260503230820 68 224 1.7 6.1 0.00 0.00 0.00 58 1012.0
20260503225814 67 89 3.5 6.1 0.00 0.00 0.00 58 1012.1
20260503224817 68 229 2.6 8.7 0.00 0.00 0.00 58 1011.9
20260503223817 67 169 2.6 6.1 0.00 0.00 0.00 60 1012.0
20260503222815 66 123 2.6 9.6 0.00 0.00 0.00 59 1012.0
20260503221816 67 189 5.2 9.6 0.00 0.00 0.00 59 1012.0
20260503220813 67 187 3.5 9.6 0.00 0.00 0.00 59 1011.9
20260503215812 67 166 5.2 10.4 0.00 0.00 0.00 59 1011.9
20260503214816 67 197 3.5 9.6 0.00 0.00 0.00 60 1011.9
20260503213817 67 149 2.6 8.7 0.00 0.00 0.00 59 1011.9
20260503212811 66 185 3.5 9.6 0.00 0.00 0.00 60 1012.1
20260503211810 66 163 5.2 10.4 0.00 0.00 0.00 58 1012.0
20260503210810 66 245 4.3 10.4 0.00 0.00 0.00 60 1012.0
20260503205808 67 170 3.5 9.6 0.00 0.00 0.00 60 1012.1
20260503204828 67 231 3.5 13.9 0.00 0.00 0.00 59 1012.1
20260503203821 67 168 6.1 11.3 0.00 0.00 0.00 57 1012.2
20260503202821 66 243 4.3 10.4 0.00 0.00 0.00 59 1012.2
20260503201804 66 265 5.2 9.6 0.00 0.00 0.00 59 1012.4
20260503200806 66 220 3.5 9.6 0.00 0.00 0.00 61 1012.4
20260503195821 66 199 2.6 10.4 0.00 0.00 0.00 61 1012.6
20260503194804 65 224 2.6 7.8 0.00 0.00 0.00 62 1012.6
20260503193804 65 127 3.5 8.7 0.00 0.00 0.00 61 1012.7
20260503192820 65 132 7.0 10.4 0.00 0.00 0.00 60 1012.8
20260503191839 66 303 2.6 9.6 0.00 0.00 0.00 61 1012.7
20260503190821 66 202 7.0 13.0 0.00 0.00 0.00 60 1012.8
20260503185811 66 132 3.5 13.0 0.00 0.00 0.00 62 1012.9
20260503184812 66 260 5.2 10.4 0.00 0.00 0.00 62 1012.9
20260503183810 65 247 5.2 9.6 0.00 0.00 0.00 63 1013.0
20260503182806 64 153 6.1 11.3 0.00 0.00 0.00 63 1012.9
20260503181821 63 164 6.1 10.4 0.00 0.00 0.00 67 1012.8
20260503180821 62 205 3.5 10.4 0.00 0.00 0.00 68 1012.7
20260503175839 62 178 6.1 12.2 0.00 0.00 0.00 67 1012.8
20260503174820 62 213 4.3 12.2 0.00 0.00 0.00 70 1012.9
20260503173802 61 171 4.3 13.0 0.00 0.00 0.00 71 1012.9
20260503172842 61 185 8.7 13.0 0.00 0.00 0.00 69 1012.9
20260503171816 61 203 6.1 10.4 0.00 0.00 0.00 71 1012.7
20260503170819 61 177 4.3 8.7 0.00 0.00 0.00 72 1012.6
20260503150807 56 135 3.5 10.4 0.00 0.00 0.00 82 1011.7
20260503130839 53 114 4.3 10.4 0.00 0.00 0.00 85 1010.2
20260503110808 54 126 3.5 7.0 0.00 0.00 0.00 85 1010.1
20260503080812 56 155 1.7 3.5 0.00 0.00 0.00 81 1010.6
20260503072819 56 117 1.7 6.1 0.00 0.00 0.00 80 1010.9
20260503071803 56 188 1.7 6.1 0.00 0.00 0.00 79 1010.9
20260503070807 57 192 1.7 5.2 0.00 0.00 0.00 78 1010.9
20260503054807 59 159 1.7 6.1 0.00 0.00 0.00 73 1011.1
20260503053805 59 178 1.7 3.5 0.00 0.00 0.00 72 1011.0
20260503052822 59 168 0.9 6.1 0.00 0.00 0.00 72 1011.0
20260503051844 60 228 1.7 6.1 0.00 0.00 0.00 71 1011.0
20260503050807 60 150 2.6 5.2 0.00 0.00 0.00 72 1011.0
20260503045822 61 193 0.9 2.6 0.00 0.00 0.00 70 1010.9
20260503044821 61 197 0.9 5.2 0.00 0.00 0.00 70 1011.0
20260503043818 61 193 2.6 4.3 0.00 0.00 0.00 70 1010.8
20260503042814 62 161 1.7 6.1 0.00 0.00 0.00 70 1010.8
20260503041815 62 199 2.6 6.1 0.00 0.00 0.00 69 1010.6
20260503040815 62 184 4.3 7.8 0.00 0.00 0.00 69 1010.6
20260503035812 63 193 1.7 6.1 0.00 0.00 0.00 67 1010.4
20260503034812 63 172 2.6 6.1 0.00 0.00 0.00 67 1010.2
20260503033811 64 179 2.6 6.1 0.00 0.00 0.00 66 1010.1
20260503032813 64 147 1.7 5.2 0.00 0.00 0.00 65 1010.1
20260503031815 65 192 2.6 4.3 0.00 0.00 0.00 65 1010.1
20260503030837 66 236 0.0 3.5 0.00 0.00 0.00 64 1010.0
20260503025811 66 234 0.0 4.3 0.00 0.00 0.00 64 1009.8
20260503024811 67 255 1.7 3.5 0.00 0.00 0.00 63 1009.9
20260503023809 68 236 0.9 4.3 0.00 0.00 0.00 61 1009.8
20260503022811 68 250 1.7 5.2 0.00 0.00 0.00 59 1009.8
20260503021830 69 184 1.7 7.8 0.00 0.00 0.00 60 1009.7
20260503020808 69 234 2.6 7.0 0.00 0.00 0.00 58 1009.7
20260503015813 70 232 2.6 7.0 0.00 0.00 0.00 57 1009.8
20260503014811 71 170 1.7 7.0 0.00 0.00 0.00 57 1009.6
20260503013829 71 159 1.7 4.3 0.00 0.00 0.00 56 1009.6
20260503012808 71 218 2.6 6.1 0.00 0.00 0.00 57 1009.7
20260503011805 72 232 2.6 5.2 0.00 0.00 0.00 56 1009.6
20260503010810 73 199 2.6 6.1 0.00 0.00 0.00 55 1009.5
20260503005809 72 207 2.6 7.0 0.00 0.00 0.00 56 1009.5